Wetbulb
44.30 37.03 33.24 37.55 40.14 40.47 38.97 37.39 36.10 39.59 43.79 42.06 41.00 41.28 41.49 45.09 46.19 46.58 45.53 45.43 45.05 50.57 52.23 53.33 52.96 52.50 52.41 51.72 51.55 51.57 51.35 51.12 51.61 51.49 51.33 51.95 52.38 53.78 54.81 56.22 57.59 58.51 64.93 67.53
38.80 35.10 40.88 42.61 41.77 39.90 38.52 36.10 35.72 39.47 42.85 41.20 39.17 37.97 41.50 43.85 44.97 46.72 47.63 45.40 46.42 50.97 51.16 51.64 51.33 50.66 50.22 49.61 49.60 49.72 49.63 49.40 49.73 50.41 50.49 50.55 51.27 52.59 54.12 55.51 56.62 57.12 58.12 60.61
36.09 39.34 43.73 41.71 39.44 38.51 37.80 35.87 35.79 35.44 39.31 40.43 37.95 35.65 38.65 43.24 45.80 48.16 49.28 48.14 48.75 50.02 49.54 49.38 49.52 48.60 48.44 47.63 47.60 47.90 47.88 47.87 48.03 48.18 48.60 48.13 48.37 48.95 50.26 51.55 52.53 54.07 56.02 57.88
38.43 43.04 41.46 40.13 38.73 38.99 34.14 39.69 38.21 36.77 34.61 29.76 36.86 27.83 35.50 39.47 41.12 45.08 48.06 46.91 48.38 48.69 48.72 48.10 47.48 46.34 46.34 46.21 47.14 46.40 46.46 45.64 46.77 46.51 45.24 43.79 43.24 43.21 45.77 47.24 49.98 51.25 53.07 54.86
37.59 39.53 38.32 37.08 38.45 39.77 36.41 39.52 37.26 36.16 32.98 33.49 32.60 30.19 33.09 38.98 38.63 42.56 45.54 47.31 47.45 46.97 46.27 45.42 45.32 45.42 45.88 45.51 44.24 44.52 44.98 44.81 44.98 44.71 43.90 42.28 41.26 42.65 44.49 45.52 46.51 48.22 50.23 52.96
40.18 42.83 41.51 39.28 41.77 40.49 40.72 37.04 36.08 34.99 33.82 26.21 31.14 30.97 29.75 33.75 38.92 41.83 45.89 47.03 46.11 44.90 45.01 45.25 45.88 45.87 44.03 43.66 42.48 42.59 42.97 42.94 43.68 42.84 42.51 41.24 40.44 41.34 41.98 42.93 44.04 46.05 48.13 50.23
37.67 38.54 40.69 43.36 37.35 39.55 36.62 32.15 24.68 21.21 24.85 22.39 34.46 31.61 31.84 38.63 43.20 45.26 45.38 44.59 44.41 44.68 43.29 43.39 43.34 42.93 42.98 41.66 41.48 42.43 40.99 39.67 40.99 41.28 41.51 40.70 39.90 40.84 41.14 42.74 44.13 45.67 47.36 49.16
30.93 27.78 38.01 41.72 38.54 34.53 33.55 31.47 24.62 19.42 20.75 26.37 33.73 28.26 33.08 43.89 45.47 44.65 43.89 43.18 43.15 42.84 43.28 42.66 42.60 41.66 41.10 41.64 41.14 39.41 39.13 37.47 38.51 39.90 39.71 39.91 40.12 40.82 41.39 43.46 44.48 45.26 46.91 49.84
31.39 31.90 41.30 42.03 41.76 39.43 35.05 30.17 35.09 29.07 28.88 24.14 27.43 34.21 40.74 39.37 42.30 42.64 41.30 41.39 40.21 41.03 41.60 41.80 41.56 40.70 40.60 40.08 39.90 38.64 38.47 37.00 36.64 37.98 38.34 38.80 39.63 40.16 40.42 41.58 43.77 45.74 48.41 50.52
37.45 30.15 39.25 41.50 42.07 40.56 37.05 38.33 29.21 30.35 21.92 20.88 27.76 31.10 28.59 33.57 34.85 38.79 37.85 38.42 39.14 40.20 40.51 40.86 40.27 39.58 39.53 39.18 38.90 37.74 37.36 37.93 36.46 36.63 36.89 38.03 38.32 38.87 39.49 40.85 42.62 43.40 45.52 47.86
39.12 35.01 33.43 38.50 36.17 33.62 34.58 33.05 34.90 33.90 31.88 24.57 23.71 29.45 33.91 32.23 36.50 36.74 37.34 38.30 37.87 38.19 38.38 38.59 38.20 38.04 37.88 37.50 37.14 37.28 36.51 36.81 35.62 35.49 35.98 36.44 36.56 37.58 38.17 39.25 40.40 41.29 43.20 45.49
40.21 35.64 29.17 32.67 39.44 41.30 38.93 35.00 34.82 27.89 27.02 29.95 29.05 29.44 38.81 37.76 38.27 39.45 38.45 37.42 37.34 37.15 36.62 36.37 35.99 35.97 35.57 35.29 35.69 36.24 36.19 35.60 35.98 35.40 35.33 35.54 35.92 36.40 36.35 36.99 38.35 39.73 40.53 42.79
39.13 32.31 26.89 28.17 33.49 36.92 34.04 35.89 36.86 35.51 33.41 27.20 23.71 27.61 40.35 40.44 39.13 38.73 36.01 36.04 35.88 35.66 34.51 34.04 33.83 33.42 33.47 34.49 34.94 35.21 35.05 34.74 34.84 34.82 34.49 34.58 34.49 34.83 34.40 34.92 35.94 37.03 37.84 39.41
39.93 34.89 29.53 24.21 28.53 32.57 29.94 33.30 35.81 33.24 24.75 26.02 26.96 31.33 34.81 36.74 35.44 36.17 35.08 34.53 33.88 33.53 33.37 32.69 31.83 32.15 32.98 33.42 33.93 34.11 33.75 34.17 33.84 33.79 33.80 33.36 33.98 34.32 33.67 33.70 33.54 33.95 35.25 35.96
36.66 28.56 32.58 34.03 34.76 33.88 32.40 32.90 34.04 32.43 31.43 25.36 29.42 29.23 32.76 33.65 33.00 33.84 34.09 33.84 32.37 31.59 31.19 31.43 31.04 31.11 31.50 31.87 32.98 33.10 32.98 33.17 33.18 32.65 32.96 32.67 33.73 34.43 33.57 32.50 31.77 31.93 32.07 33.00
36.30 28.44 31.44 28.82 33.72 32.43 29.29 31.69 31.26 31.99 32.12 31.52 30.35 28.42 33.13 33.75 33.95 31.52 31.92 31.18 30.06 29.48 29.52 29.88 30.45 29.95 30.29 30.59 31.76 31.66 31.90 32.08 32.58 32.03 32.35 33.16 33.25 33.48 33.01 32.37 31.11 30.29 29.91 30.38
30.76 28.87 27.34 23.46 30.98 30.27 22.84 29.30 31.44 32.41 31.67 32.29 25.92 30.56 31.63 29.43 28.99 28.65 29.34 29.26 28.75 28.31 28.31 28.72 29.30 29.27 29.95 30.20 31.87 30.57 31.77 32.43 31.85 31.53 32.04 32.65 32.48 32.82 32.63 32.62 31.44 30.24 29.14 29.23
30.84 28.82 27.58 24.57 24.57 16.83 28.43 34.28 34.02 30.51 29.75 31.54 31.55 31.10 30.07 28.15 27.93 28.25 28.62 27.65 27.65 28.41 27.21 28.31 28.82 29.95 30.53 31.77 31.85 32.24 32.61 31.60 31.07 30.55 30.70 31.85 30.90 30.86 31.99 31.95 31.83 31.73 30.47 29.20
35.36 29.88 24.14 20.75 21.63 26.87 29.08 31.41 27.43 24.55 25.85 29.19 28.77 30.41 28.83 27.43 26.23 25.49 28.59 28.70 28.56 28.17 29.75 26.91 30.02 31.14 32.31 31.99 32.84 32.84 31.27 31.02 30.43 29.39 29.60 30.43 30.30 29.23 29.44 29.37 30.76 31.38 29.84 28.96
33.51 32.87 25.16 24.07 18.89 15.27 24.29 32.94 34.96 32.94 19.45 27.87 27.09 26.62 29.47 27.84 22.96 21.34 27.80 29.07 28.60 29.71 29.26 30.06 31.13 30.81 30.69 31.50 32.28 31.77 31.13 30.66 29.87 29.95 28.75 29.33 29.73 27.98 27.34 27.53 28.52 29.68 29.86 28.77
25.46 25.70 23.93 23.06 20.51 24.29 32.10 34.45 36.15 18.03 18.93 27.53 28.26 26.39 27.85 22.32 22.57 25.55 28.36 25.84 27.19 30.12 30.63 31.02 30.65 29.60 30.20 31.19 30.97 29.87 30.88 30.06 31.32 31.64 29.87 28.50 28.31 27.31 26.32 26.50 26.71 26.86 27.21 26.26
24.86 23.52 22.46 23.76 19.81 17.76 30.56 31.79 25.42 24.51 28.70 27.72 27.93 25.76 23.18 24.31 25.22 25.35 24.97 23.98 27.37 29.23 30.17 30.52 28.60 27.66 28.20 28.60 28.72 27.51 27.65 29.77 30.72 30.79 30.22 28.13 27.60 27.79 26.92 24.59 24.49 24.90 24.59 24.29
21.73 24.83 23.95 25.22 23.19 29.21 30.53 28.85 32.31 32.03 27.71 27.87 27.41 27.53 26.43 24.81 24.18 22.96 23.33 24.61 25.73 27.56 28.77 28.06 25.89 25.22 25.82 26.41 26.62 25.75 27.17 29.60 28.62 28.21 28.39 27.98 27.27 26.32 26.40 24.21 23.02 22.09 22.44 21.81
32.09 34.92 24.97 25.39 26.81 27.28 28.94 31.08 31.27 30.63 28.82 28.55 28.66 27.37 25.91 23.17 22.32 22.60 24.03 24.24 24.39 24.82 24.48 24.78 23.83 22.42 22.13 23.94 25.23 26.20 27.60 28.83 28.89 26.64 26.62 27.50 27.08 25.43 25.20 24.67 23.72 22.47 21.13 20.80
30.89 32.40 27.57 26.95 28.18 28.71 29.16 29.71 29.41 29.12 29.11 28.08 26.50 25.40 24.75 24.30 23.62 23.94 23.52 22.82 21.73 21.36 22.71 22.99 21.81 21.08 20.46 21.96 22.64 24.32 25.65 27.15 26.31 26.49 25.69 25.50 25.91 25.83 25.01 24.79 24.01 23.78 24.06 24.00
33.37 28.11 23.95 25.17 28.68 28.59 27.34 29.61 29.74 28.00 27.38 28.37 26.88 26.78 27.01 25.77 24.37 24.48 22.42 22.75 22.17 21.03 21.13 20.18 19.89 19.55 19.15 19.54 20.04 21.57 23.70 26.07 25.19 24.83 25.14 24.78 24.80 25.01 25.14 24.61 22.57 27.48 26.97 26.09
MSLP
1010.55 1011.40 1011.74 1011.64 1011.79 1011.74 1011.50 1011.16 1010.48 1008.84 1008.99 1008.92 1007.86 1007.48 1006.63 1005.15 1005.00 1004.19 1003.27 1002.32 1002.60 1003.72 1004.93 1005.41 1006.33 1007.11 1008.02 1008.85 1009.41 1010.33 1010.95 1011.39 1011.32 1011.15 1010.78 1010.21 1009.64 1009.07 1008.49 1008.00 1007.67 1007.35 1007.24 1006.54
1010.94 1010.03 1010.67 1010.79 1010.92 1011.15 1010.99 1010.75 1010.15 1009.39 1009.01 1009.29 1008.55 1007.83 1007.08 1005.91 1004.70 1004.45 1003.65 1002.07 1002.73 1004.04 1005.37 1006.30 1007.28 1008.11 1009.08 1010.15 1010.70 1011.21 1011.74 1011.87 1011.71 1011.67 1011.42 1011.06 1010.64 1009.79 1009.25 1008.40 1007.67 1007.16 1007.13 1006.98
1010.15 1009.39 1009.71 1010.03 1010.07 1010.43 1010.15 1010.66 1010.65 1010.29 1009.65 1009.32 1009.45 1008.04 1007.18 1005.17 1004.53 1003.61 1002.66 1002.81 1002.28 1003.03 1005.04 1006.73 1008.41 1009.49 1010.14 1010.89 1011.43 1012.13 1012.44 1012.39 1012.23 1011.94 1011.56 1011.20 1010.87 1010.31 1009.86 1009.17 1008.38 1007.51 1007.34 1006.99
1009.48 1009.56 1009.48 1009.49 1009.50 1010.09 1009.86 1010.38 1011.27 1011.35 1011.54 1011.04 1010.61 1009.42 1006.78 1006.05 1005.15 1003.93 1003.50 1003.46 1003.84 1004.32 1005.70 1006.96 1008.68 1010.24 1011.21 1011.51 1012.04 1013.08 1013.24 1013.07 1012.71 1012.32 1011.87 1012.08 1011.93 1011.15 1010.33 1009.86 1008.91 1008.15 1007.35 1007.06
1008.54 1009.07 1009.29 1009.36 1009.60 1010.27 1010.79 1011.31 1012.13 1012.61 1012.73 1012.44 1010.69 1011.33 1005.07 1006.34 1005.03 1004.30 1004.09 1004.79 1005.01 1006.02 1006.44 1007.82 1009.09 1010.53 1010.99 1011.72 1013.00 1013.96 1013.90 1013.47 1013.01 1012.59 1012.49 1012.47 1012.13 1011.65 1010.64 1009.72 1008.84 1008.08 1007.54 1006.84
1008.72 1009.27 1009.63 1009.74 1009.91 1010.40 1011.07 1011.93 1012.55 1013.17 1013.56 1012.31 1010.55 1010.27 1005.43 1005.99 1005.32 1005.27 1005.94 1005.93 1005.25 1006.85 1008.54 1009.37 1009.61 1010.77 1011.45 1012.62 1013.77 1014.40 1014.25 1013.58 1013.14 1012.89 1012.86 1012.60 1012.26 1011.56 1010.67 1009.73 1008.87 1008.24 1007.51 1006.64
1008.81 1008.94 1009.26 1009.69 1010.29 1010.74 1011.60 1012.71 1013.80 1013.83 1013.31 1011.24 1009.54 1008.90 1007.24 1006.29 1005.65 1005.22 1006.61 1007.33 1006.71 1007.82 1009.25 1010.57 1010.94 1012.20 1012.11 1013.86 1014.42 1014.57 1014.65 1014.20 1013.69 1013.24 1012.76 1012.82 1012.36 1011.62 1010.71 1009.79 1008.72 1008.18 1007.23 1006.25
1008.83 1008.81 1008.27 1008.93 1009.42 1010.10 1011.09 1012.60 1013.70 1013.22 1012.66 1011.34 1010.21 1008.89 1007.50 1007.37 1006.87 1007.65 1007.62 1007.66 1008.82 1009.37 1010.36 1011.44 1012.41 1013.09 1013.73 1014.54 1014.96 1015.08 1015.07 1014.98 1014.55 1013.81 1013.15 1013.00 1012.08 1011.44 1010.59 1009.85 1008.98 1008.41 1007.15 1005.71
1008.58 1008.31 1007.88 1007.69 1008.50 1009.99 1010.95 1012.09 1012.62 1013.20 1012.70 1011.94 1010.28 1008.70 1008.43 1008.79 1008.43 1009.01 1008.65 1008.87 1009.63 1010.67 1011.88 1012.48 1012.81 1013.70 1014.45 1015.34 1015.37 1015.45 1015.44 1015.46 1014.99 1014.20 1013.64 1012.96 1012.33 1011.47 1010.63 1009.80 1009.09 1008.03 1006.58 1005.23
1008.26 1008.52 1008.02 1007.82 1008.65 1009.35 1009.83 1010.96 1012.41 1013.12 1012.73 1011.59 1010.08 1009.99 1011.40 1011.13 1010.78 1010.67 1011.05 1010.94 1011.38 1012.14 1013.15 1014.14 1013.92 1014.93 1015.47 1015.83 1015.69 1016.02 1016.01 1015.68 1015.46 1014.65 1013.77 1013.11 1012.49 1011.70 1010.82 1009.82 1008.77 1007.86 1006.38 1005.12
1008.28 1008.77 1008.71 1008.28 1008.41 1008.41 1009.36 1010.26 1011.32 1012.36 1012.57 1011.93 1011.04 1011.78 1012.98 1012.45 1012.59 1012.65 1012.49 1012.93 1013.22 1013.73 1014.55 1014.86 1015.77 1016.29 1016.53 1016.59 1016.49 1016.55 1016.17 1015.86 1015.55 1014.75 1013.99 1013.26 1012.53 1011.82 1011.02 1010.13 1009.08 1007.70 1006.28 1004.98
1008.07 1009.00 1008.97 1008.39 1008.11 1008.21 1008.55 1009.14 1010.09 1011.51 1011.95 1011.92 1011.70 1012.32 1012.96 1012.98 1013.34 1013.33 1013.17 1013.94 1014.29 1014.91 1016.04 1016.60 1016.86 1016.94 1017.28 1017.16 1016.84 1016.52 1016.50 1016.50 1015.91 1015.29 1014.19 1013.62 1013.17 1012.50 1011.29 1010.49 1009.07 1007.66 1006.45 1004.81
1008.65 1009.53 1009.23 1008.46 1008.46 1008.18 1008.05 1008.18 1009.03 1010.06 1011.07 1011.46 1011.87 1012.39 1012.62 1013.03 1013.13 1013.56 1014.07 1014.79 1015.44 1015.96 1016.67 1017.05 1017.42 1017.47 1017.60 1017.79 1017.48 1017.39 1017.35 1017.02 1016.48 1015.58 1014.73 1013.96 1013.79 1013.01 1011.61 1010.70 1009.20 1008.07 1006.64 1005.05
1008.58 1008.49 1008.29 1008.24 1008.46 1008.47 1008.00 1008.04 1008.40 1009.28 1010.33 1010.83 1011.45 1012.13 1013.05 1013.15 1013.99 1014.48 1015.21 1015.61 1016.07 1016.67 1017.01 1017.46 1017.98 1018.39 1018.45 1018.43 1018.44 1018.14 1017.66 1017.17 1016.52 1015.87 1015.15 1014.85 1014.32 1013.42 1012.46 1010.97 1009.91 1008.52 1007.32 1005.79
1009.36 1009.34 1008.72 1008.33 1008.44 1008.18 1008.23 1007.79 1008.17 1008.78 1009.53 1010.51 1011.22 1012.47 1013.82 1014.71 1015.35 1015.80 1016.29 1016.73 1017.01 1017.36 1018.02 1018.65 1018.94 1019.57 1019.51 1019.23 1018.90 1018.54 1018.01 1017.33 1017.01 1016.56 1016.27 1015.73 1015.00 1014.14 1012.73 1011.51 1010.53 1009.38 1008.29 1007.18
1009.55 1009.72 1009.32 1009.19 1008.80 1008.53 1008.70 1008.55 1008.69 1009.15 1009.76 1010.54 1012.14 1014.03 1015.31 1016.03 1016.61 1017.19 1017.66 1018.18 1018.83 1019.47 1019.97 1020.51 1020.71 1020.45 1019.93 1019.80 1019.50 1019.15 1018.74 1018.32 1017.93 1017.45 1017.08 1016.10 1015.60 1014.64 1013.26 1012.25 1011.19 1010.24 1009.23 1008.77
1009.79 1009.96 1009.97 1010.03 1009.48 1009.34 1009.58 1009.64 1009.74 1010.44 1011.51 1011.88 1013.03 1014.70 1016.30 1017.32 1018.24 1019.10 1019.40 1019.84 1020.36 1020.84 1020.90 1020.92 1021.05 1020.91 1020.66 1020.68 1020.56 1020.09 1019.53 1019.23 1018.55 1018.03 1017.55 1016.96 1016.47 1014.97 1014.05 1013.02 1012.05 1011.52 1010.57 1010.34
1009.75 1010.38 1010.36 1010.22 1010.10 1010.60 1010.58 1010.66 1011.05 1012.05 1013.55 1013.98 1014.73 1015.89 1017.03 1018.34 1019.50 1020.27 1020.67 1020.80 1020.97 1021.03 1021.31 1021.56 1021.59 1021.52 1021.53 1021.46 1021.15 1020.59 1020.12 1019.81 1019.40 1018.76 1018.36 1017.83 1016.67 1015.69 1014.76 1013.82 1013.09 1012.15 1011.78 1011.15
1009.58 1010.04 1010.53 1010.98 1011.23 1011.51 1011.47 1011.86 1012.56 1013.16 1015.26 1015.93 1016.46 1017.30 1018.30 1019.40 1020.06 1021.10 1021.40 1021.58 1021.74 1021.93 1022.13 1022.42 1022.48 1022.35 1022.14 1021.90 1021.57 1021.14 1020.80 1020.52 1020.02 1019.51 1018.98 1018.19 1017.35 1016.61 1015.84 1015.06 1013.93 1013.49 1012.99 1012.06
1009.73 1010.10 1011.09 1011.54 1012.14 1012.40 1012.72 1012.69 1013.26 1014.06 1016.10 1017.05 1017.68 1018.37 1018.96 1019.59 1020.47 1021.79 1022.05 1022.32 1022.55 1022.61 1022.81 1022.92 1022.95 1022.88 1022.66 1022.39 1021.97 1021.52 1021.18 1020.98 1020.65 1020.12 1019.63 1019.09 1018.20 1017.67 1016.77 1016.33 1015.55 1015.29 1014.30 1013.60
1010.23 1010.91 1011.70 1012.36 1012.90 1013.59 1013.47 1013.48 1014.04 1015.73 1017.58 1017.79 1018.57 1019.28 1019.36 1020.48 1021.34 1022.29 1022.86 1023.25 1023.25 1023.31 1023.36 1023.48 1023.48 1023.39 1023.28 1022.96 1022.50 1021.94 1021.58 1021.35 1021.02 1020.75 1020.43 1019.56 1019.05 1018.46 1017.90 1017.53 1017.17 1016.54 1015.59 1015.03
1010.46 1011.52 1012.45 1013.21 1013.84 1014.76 1014.73 1014.81 1015.52 1016.73 1017.74 1018.42 1019.37 1020.13 1020.55 1021.36 1022.32 1023.07 1023.66 1023.94 1023.91 1023.87 1023.88 1023.98 1024.09 1024.12 1023.92 1023.38 1022.81 1022.51 1022.14 1021.70 1021.38 1021.06 1020.72 1020.34 1019.80 1019.21 1018.91 1018.66 1018.24 1017.58 1016.95 1016.31
1010.86 1011.46 1012.72 1014.27 1014.94 1015.55 1015.85 1016.15 1016.55 1017.10 1018.25 1019.19 1020.02 1020.88 1021.53 1022.30 1023.13 1023.88 1024.31 1024.55 1024.59 1024.53 1024.51 1024.65 1024.59 1024.51 1024.42 1024.11 1023.81 1023.45 1022.81 1022.10 1022.00 1021.58 1021.10 1020.66 1020.37 1020.21 1020.06 1019.82 1019.34 1018.70 1018.12 1017.71
1011.06 1011.52 1013.05 1014.41 1015.81 1016.31 1016.81 1017.18 1017.57 1018.14 1018.95 1019.91 1020.66 1021.42 1022.26 1023.04 1023.81 1024.34 1024.78 1025.05 1025.24 1025.33 1025.26 1025.21 1025.27 1025.32 1025.40 1025.29 1024.89 1024.34 1023.68 1022.96 1022.42 1022.16 1021.77 1021.24 1021.10 1021.15 1021.02 1020.78 1020.53 1020.08 1019.59 1019.16
1010.62 1011.67 1013.30 1014.89 1015.87 1016.72 1017.34 1017.83 1018.34 1019.05 1019.78 1020.48 1021.38 1022.03 1022.78 1023.44 1024.10 1024.50 1025.07 1025.57 1025.80 1025.96 1026.08 1026.17 1026.37 1026.58 1026.54 1026.22 1025.84 1025.36 1024.67 1023.96 1023.45 1023.05 1022.66 1022.21 1021.93 1021.76 1021.73 1021.61 1021.39 1021.18 1020.88 1020.45
1011.13 1011.89 1013.00 1013.76 1014.48 1015.56 1017.02 1018.05 1018.81 1019.37 1019.99 1020.71 1021.42 1022.15 1022.91 1023.47 1024.08 1024.74 1025.36 1025.77 1026.09 1026.38 1026.79 1027.15 1027.39 1027.45 1027.39 1027.09 1026.72 1026.17 1025.63 1024.96 1024.38 1023.84 1023.39 1023.14 1022.90 1022.74 1022.46 1022.15 1022.13 1022.01 1021.62 1021.41
Wind_Speed
7 6 8 14 13 16 18 18 19 22 16 12 18 19 10 20 22 19 15 4 5 14 15 17 15 14 15 14 14 11 10 8 7 6 7 8 8 8 8 8 10 11 6 9
7 16 14 15 16 17 18 17 19 22 18 11 16 21 19 21 19 22 15 8 5 19 17 16 14 13 14 11 9 9 8 7 5 6 5 4 7 5 9 9 11 10 10 7
14 7 10 15 15 13 18 9 17 20 15 14 12 20 18 27 19 21 18 18 15 24 21 19 14 14 12 12 11 11 10 10 9 11 8 7 6 6 5 7 11 12 14 14
14 15 16 16 16 7 17 7 4 12 9 10 11 13 24 17 20 14 17 14 21 22 22 18 17 15 13 12 14 11 9 9 10 9 8 9 7 10 8 10 11 12 17 15
13 9 7 2 2 5 3 8 5 3 7 12 12 9 21 2 14 10 11 13 19 17 21 18 18 15 15 14 11 7 9 8 9 10 8 7 9 9 9 10 15 15 14 15
16 4 4 3 3 1 4 5 3 3 1 11 14 15 18 12 7 6 7 8 23 20 18 17 17 15 15 11 8 6 11 12 12 12 12 11 12 14 12 12 12 11 11 12
2 8 3 5 4 5 6 6 3 4 5 7 6 7 14 10 11 6 16 14 20 20 17 16 16 12 15 9 7 9 12 13 15 14 14 15 12 13 14 14 12 16 12 12
5 6 11 10 14 6 6 9 5 5 3 5 5 6 6 10 18 18 18 24 20 18 17 15 14 12 12 11 9 9 11 13 13 14 15 15 14 9 10 12 13 13 13 14
5 7 5 8 6 11 3 7 2 6 6 4 6 4 7 14 8 20 19 20 18 17 15 13 16 14 13 11 12 13 12 12 14 14 13 15 15 14 13 16 15 13 15 14
2 2 4 6 8 8 7 6 2 2 4 5 5 1 6 15 12 16 16 16 17 17 15 13 14 14 12 11 9 11 12 13 14 14 13 12 14 15 15 14 15 16 16 16
7 4 2 2 6 11 7 9 1 3 4 3 4 4 1 9 9 12 13 15 14 16 13 13 12 10 10 11 11 11 13 14 14 14 14 14 15 15 15 13 14 14 16 16
4 1 5 8 3 7 9 17 14 3 3 2 5 2 4 7 1 8 14 16 14 16 11 10 10 12 10 11 12 13 13 13 14 14 14 14 14 15 14 15 15 15 16 15
8 4 3 1 3 3 5 4 6 6 4 5 2 2 4 9 6 14 14 13 12 12 10 10 11 12 13 13 12 12 12 13 13 14 14 15 15 15 15 16 16 15 17 17
2 2 4 5 3 1 3 10 10 6 3 1 3 5 3 10 11 12 12 12 13 13 15 13 12 12 12 13 12 12 12 13 14 14 15 16 15 15 15 15 16 17 17 18
3 3 3 3 6 7 8 3 5 8 5 5 5 9 10 12 12 11 12 13 14 15 15 14 13 12 11 11 11 12 13 13 14 14 14 15 14 14 14 15 16 16 17 17
1 3 0 3 8 4 5 6 5 4 5 1 15 11 10 11 10 12 11 12 12 12 11 10 11 13 13 14 12 12 13 13 12 12 13 13 13 14 15 15 17 17 18 17
6 3 4 3 7 3 3 2 3 9 13 4 5 8 11 10 10 10 10 10 10 9 10 11 12 12 12 11 11 11 11 11 12 12 13 13 12 14 14 15 15 16 18 16
1 5 2 1 6 5 4 7 9 13 11 10 11 10 11 11 11 10 10 9 10 11 10 10 9 10 10 9 10 10 9 11 11 12 12 11 14 15 15 16 16 16 13 15
8 3 2 3 3 6 6 3 3 5 4 6 6 11 13 12 12 10 9 9 9 7 8 5 6 6 7 8 8 7 9 10 12 13 12 13 14 14 15 16 16 14 14 16
5 3 4 1 3 5 3 8 7 3 2 6 7 4 4 7 3 2 8 8 6 6 5 6 7 7 8 9 8 7 7 8 9 11 13 12 13 14 16 15 15 12 12 13
4 1 3 2 2 2 1 6 3 5 4 8 5 4 5 4 4 10 7 5 4 6 7 7 7 7 8 8 9 9 5 6 5 5 8 12 13 14 15 13 13 13 13 13
5 5 3 3 2 4 7 1 3 6 7 9 8 9 13 13 11 9 7 5 6 7 6 8 7 8 8 10 10 11 8 6 7 5 3 8 11 10 12 14 13 13 13 13
1 5 5 2 2 5 7 7 3 8 10 8 9 10 11 11 10 7 6 6 7 7 5 7 7 9 11 12 13 12 12 6 9 10 10 5 9 11 10 12 13 12 13 12
3 4 5 4 5 7 7 8 10 10 11 10 9 11 10 10 7 7 7 6 7 5 8 9 10 11 11 11 12 12 13 12 11 12 12 12 11 8 9 8 8 9 11 11
5 6 7 6 9 10 8 8 10 11 11 12 10 10 11 10 8 9 8 6 5 6 8 9 9 8 8 9 11 12 13 12 10 10 10 11 9 10 5 7 7 7 10 13
3 6 5 4 15 4 11 12 13 12 12 12 13 12 11 10 10 9 7 6 7 8 8 8 8 8 8 9 9 11 12 10 9 9 8 8 7 7 6 6 3 12 16 22
Wind_Direction
225 184 206 228 225 238 256 266 279 291 309 305 288 284 320 314 307 299 286 221 193 115 109 95 86 80 74 61 57 45 36 13 4 353 354 343 333 324 319 315 311 320 313 220
251 244 227 231 236 249 258 275 288 293 304 315 308 297 299 295 281 284 299 201 181 122 103 93 83 76 77 69 61 51 38 13 357 4 348 345 343 330 319 313 306 296 286 267
225 223 237 248 257 262 257 255 276 283 303 303 308 292 290 270 271 269 279 249 175 135 122 98 83 77 71 65 54 44 25 15 15 2 355 349 330 328 316 317 313 311 313 312
247 235 255 262 272 271 284 217 18 351 358 289 54 299 274 282 290 292 245 295 99 103 92 90 88 74 65 57 53 35 20 11 2 354 6 358 331 319 312 304 302 301 304 301
244 268 247 291 333 40 282 61 45 337 296 306 275 251 273 312 284 280 307 136 99 96 95 94 89 82 71 61 48 21 7 359 354 5 6 349 328 310 306 303 302 300 298 297
254 120 159 227 322 343 57 61 6 307 270 255 269 226 282 253 275 321 17 115 109 94 86 81 79 73 67 61 50 14 5 0 1 359 352 344 332 320 315 307 301 296 296 294
326 253 197 179 235 256 96 69 330 290 211 255 274 255 250 294 320 281 135 89 76 82 78 69 63 63 65 55 47 27 17 1 353 348 347 338 329 322 313 309 305 301 295 286
196 306 221 193 201 178 148 143 185 252 255 319 335 253 269 6 92 81 84 86 71 71 74 73 71 65 57 48 37 31 19 4 352 348 342 335 332 327 316 307 307 294 288 282
210 241 347 156 175 173 170 194 176 292 278 265 235 282 72 60 44 93 82 79 73 69 65 65 61 56 52 41 33 27 7 5 354 350 342 336 335 330 323 315 300 296 293 282
178 311 232 197 144 202 156 153 137 192 262 248 266 37 34 21 93 69 70 78 85 70 52 55 63 50 43 30 30 27 9 1 354 349 348 341 335 332 323 317 311 307 302 299
142 156 215 39 183 191 186 230 125 156 234 286 311 81 351 68 67 85 84 78 74 75 61 53 54 49 41 31 20 19 7 359 356 353 348 343 341 336 330 324 316 317 314 313
160 77 223 217 154 229 220 220 205 177 238 326 346 108 126 96 153 143 110 88 75 71 62 58 50 42 32 28 16 17 8 358 355 352 352 350 342 337 338 328 329 331 327 331
140 187 202 278 9 274 240 216 164 185 151 219 257 107 174 158 93 93 92 85 82 79 69 57 47 37 29 19 10 12 7 359 354 353 354 356 347 344 344 338 342 341 343 349
165 248 196 170 167 285 228 238 215 157 125 197 279 130 161 83 90 75 82 73 62 55 45 39 34 27 24 16 5 7 8 5 359 358 360 357 350 350 344 350 350 353 355 359
107 258 269 313 193 181 286 319 248 214 190 152 229 123 92 77 69 63 63 59 50 43 34 27 24 20 16 11 7 9 9 7 2 0 359 359 352 350 357 3 3 3 6 6
98 279 73 338 270 194 253 314 307 307 319 20 116 104 89 76 67 56 50 59 58 47 38 31 30 25 20 13 9 9 8 3 0 3 1 1 355 359 6 9 13 13 13 11
152 167 113 232 223 309 322 350 1 84 44 17 60 118 122 93 76 53 66 67 68 63 47 40 31 33 24 15 12 12 4 356 4 5 3 4 357 8 10 12 18 18 20 9
218 166 244 208 90 202 121 53 77 96 62 42 86 106 113 115 97 69 57 61 53 52 48 37 28 29 25 15 15 12 3 10 9 9 6 1 9 12 8 14 17 16 14 15
190 170 140 140 176 116 142 51 133 139 85 48 61 118 125 132 111 78 75 64 57 43 65 42 29 23 10 6 358 1 17 14 17 16 10 7 15 15 14 11 14 15 16 19
226 213 129 162 158 207 196 142 122 77 172 76 67 26 147 180 92 91 73 62 56 59 50 44 40 30 19 5 354 0 10 17 15 18 19 16 23 23 22 14 13 10 12 23
160 107 174 231 204 130 250 76 99 87 204 104 85 44 268 108 84 115 97 56 38 72 76 62 46 36 22 11 7 11 344 9 351 4 17 25 25 28 26 19 15 12 19 22
150 166 178 203 168 195 8 315 194 141 103 108 96 93 92 102 100 97 87 60 41 76 62 63 56 43 35 26 17 19 6 359 4 349 17 38 31 28 27 23 17 17 18 26
102 163 136 28 102 74 53 88 73 120 125 108 107 111 112 111 112 111 99 75 54 50 51 80 74 52 34 26 22 16 11 21 28 21 18 27 42 34 27 28 23 22 23 24
114 153 94 154 133 116 111 98 94 104 107 115 116 116 114 117 118 112 105 84 69 51 58 58 56 47 36 20 17 16 14 16 25 31 23 25 31 42 33 32 32 31 31 28
188 113 122 81 122 127 131 118 113 112 114 113 111 121 127 127 126 118 105 92 73 65 59 54 53 49 34 22 16 10 5 16 24 27 28 26 23 23 44 46 37 36 43 44
16 154 158 199 163 128 142 135 141 135 136 133 136 127 117 114 110 106 109 107 92 74 60 56 50 45 28 24 17 7 2 356 19 24 25 22 16 12 15 21 26 51 57 44